Location: Haulchin
(50.3172°N, 3.4360°E)
Time: 06:34:07
(UTC+00:00)

Cosmos 2333 Rocket - Pass Details

Date: 15 August 2024
Orbit: 839 x 863 km, 70.8° (Epoch: 16 September)

Event Time Altitude Azimuth Distance (km) Brightness Sun altitude
Exits shadow 00:20:59 58° 239° (WSW) 1,003 2.3 -25.4°
Maximum altitude 00:22:04 74° 301° (WNW) 901 2.3 -25.4°
Drops below altitude 10° 00:27:51 10° 27° (NNE) 2,513 5.6 -25.2°
Sets 00:30:21 0° 30° (NNE) 3,455 6.5 -25.1°
